Regional Weather Roundup
Issued by NWS

Home | Current Version | Previous Version | Text Only | Print | Product List | Glossary Off
Versions: 1 2 3 4 5 6 7 8 9 10 11 12 13 14 15 16 17 18 19 20 21 22 23 24 25 26 27 28 29 30 31 32 33 34 35 36 37 38 39 40 41 42 43 44 45 46 47 48 49 50

000
ASUS43 KMKX 280700
RWRWI

WISCONSIN REGIONAL WEATHER ROUNDUP
NATIONAL WEATHER SERVICE MILWAUKEE/SULLIVAN WI
100 AM CST TUE FEB 28 2017

NOTE: "FAIR" INDICATES FEW OR NO CLOUDS BELOW 12,000 FEET WITH NO
SIGNIFICANT WEATHER AND/OR OBSTRUCTIONS TO VISIBILITY.

WIZ001-002-006>008-014>016-023>028-280800-
NORTHWEST WISCONSIN

CITY           SKY/WX    TMP DP  RH WIND       PRES   REMARKS
SUPERIOR ARPT  PTCLDY    29  28  96 E3        29.87F
ASHLAND        MOCLDY    25  23  92 CALM      29.88F
HAYWARD        CLOUDY    36  25  64 SE6       29.84F WCI  31
SIREN          CLOUDY    35  24  64 SE6       29.83F WCI  30
CUMBERLAND     CLOUDY    32  23  69 SE3       29.84F
RICE LAKE      CLOUDY    34  26  70 SE9       29.87F WCI  27
CHETEK         CLOUDY    32  25  76 E3        29.86F
LADYSMITH      CLOUDY    32  26  77 E6        29.89F WCI  27
EAU CLAIRE     NOT AVBL
MENOMONIE      MOCLDY    32  26  81 E5        29.86F WCI  27
NEW RICHMOND   CLOUDY    35  28  74 SE5       29.83F WCI  31
OSCEOLA        CLOUDY    38  28  68 SE7       29.85F WCI  32
$$

WIZ003>005-009-010-017-018-280800-
NORTH CENTRAL WISCONSIN

CITY           SKY/WX    TMP DP  RH WIND       PRES   REMARKS
MANITOWISH WTR CLOUDY    31  26  80 S5        29.89F WCI  26
ARBOR VITAE    CLOUDY    34  28  80 SE7         N/A  WCI  28
WOODRUFF       CLOUDY    34  28  80 SE7         N/A  WCI  28
RHINELANDER    CLOUDY    34  28  79 SE6       29.91F WCI  29
EAGLE RIVER    CLOUDY    31  25  77 SE5       29.91F WCI  26
LAND O LAKES   CLOUDY    32  27  81 S5        29.93F WCI  27
PHILLIPS       CLOUDY    32  27  82 SE3       29.88F
TOMAHAWK       CLOUDY    33  28  82 CALM      29.91F
MEDFORD        PTCLDY    33  28  83 SE8       29.90S WCI  26
MERRILL        NOT AVBL
$$

WIZ029-030-035-036-043>047-280800-
CENTRAL WISCONSIN

CITY           SKY/WX    TMP DP  RH WIND       PRES   REMARKS
WAUSAU         CLOUDY    32  28  85 E7        29.91F WCI  26
MOSINEE        CLOUDY    34  32  93 E5        29.94F WCI  30
MARSHFIELD     CLOUDY    34  28  79 E7        29.88F WCI  28
STEVENS POINT  MOCLDY    32  29  88 E7        29.93F WCI  26
WAUPACA        CLOUDY    33  31  90 E5        29.96F WCI  29
WAUTOMA        CLOUDY    31  28  89 CALM      29.95F
WISC RAPIDS    CLOUDY    38  31  76 SE7       29.92F WCI  33
CAMP DOUGLAS   MIX PCPN  37  32  81 SE9       29.91F WCI  31
$$

WIZ011>013-019>022-031-037>040-048>050-280800-
NORTHEAST WISCONSIN

CITY           SKY/WX    TMP DP  RH WIND       PRES   REMARKS
ANTIGO         CLOUDY    31  28  90 S3        29.95S
SHAWANO        CLOUDY    32  29  90 CALM      29.97F FOG
OCONTO         MOCLDY    29  28  95 CALM      30.00F
STURGEON BAY   PTCLDY    36  34  92 E6        30.01F WCI  31
GREEN BAY      CLOUDY    37  33  85 SE7       29.98F WCI  32
MANITOWOC      CLOUDY    34  34 100 SE5       30.02F FOG     WCI  30
APPLETON       CLOUDY    34  30  86 SE7       29.96F WCI  28
CLINTONVILLE   CLOUDY    32  30  93 SE5       29.97F WCI  27
OSHKOSH        PTCLDY    39  32  76 SE8       29.96F WCI  33
$$

WIZ032>034-041-042-053>061-280800-
SOUTHWEST WISCONSIN

CITY           SKY/WX    TMP DP  RH WIND       PRES   REMARKS
LA CROSSE      CLOUDY    43  34  70 S9        29.86F
SPARTA         CLOUDY    39  33  77 S9        29.90F WCI  33
VIROQUA        CLOUDY    40  36  86 SE7       29.89F WCI  35
BOSCOBEL       LGT RAIN  40  37  89 NE5       29.88F
PRAIRIE DU CHI RAIN      41  36  83 E6        29.87F
PLATTEVILLE    CLOUDY    41  38  89 E9        29.87F
$$

WIZ056-057-062-063-064-067-068-280800-
SOUTH CENTRAL WISCONSIN

CITY           SKY/WX    TMP DP  RH WIND       PRES   REMARKS
REEDSBURG      DRIZZLE   37  36  96 CALM      29.93F
BARABOO/DELLS  LGT RAIN  38  34  85 CALM      29.93F
LONE ROCK      NOT AVBL
MINERAL POINT  CLOUDY    43  36  75 E8        29.88F
MADISON        CLOUDY    42  34  73 SE3       29.93F
MIDDLETON      CLOUDY    41  35  80 E5        29.94F
WATERTOWN      CLOUDY    41  35  79 SE7       29.95F
MONROE         RAIN      41  36  81 E3        29.90F
JANESVILLE     LGT RAIN  45  37  76 SE10      29.93F
$$

WIZ051-052-058>065-066-070>072-280800-
SOUTHEAST WISCONSIN

CITY           SKY/WX    TMP DP  RH WIND       PRES   REMARKS
MILWAUKEE      CLOUDY    43  36  76 SE10      30.00F
WAUKESHA       MIX PCPN  41  34  75 SE9       29.99F
MILWAUKEE/TIMM CLOUDY    43  34  70 SE7       30.00F
RACINE         CLOUDY    41  35  79 S9        30.02F
KENOSHA        CLOUDY    44  37  76 SE10      29.99F
FOND DU LAC    LGT RAIN  40  31  70 S9        29.97F WCI  34
SHEBOYGAN      MOCLDY    38  34  85 S9        30.01F WCI  31
WEST BEND      CLOUDY    37  36  93 SE5       29.99F WCI  34
JUNEAU         CLOUDY    40  33  77 SE10      29.97F WCI  34
$$

LSZ147-162-280800-
LAKE SUPERIOR

STATION/POSITION TIME  TEMP    WIND        PRES    WAVE
                       AIR SEA DIR/SP/G            HT/PER
                 (UTC) (F)     (DEG/KT/KT) (MB)    (FT/S)
DEVILS ISLAND    0600   33      20/  8/  8 1013.8S
PORT WING        0630   26     120/  4/  5 1012.5F
SAXON HARBOR     0630   33      CALM  /  3 1012.2R
$$

LMZ867-665-643>646-280800-
LAKE MICHIGAN

STATION/POSITION TIME  TEMP    WIND        PRES    WAVE
                       AIR SEA DIR/SP/G            HT/PER
                 (UTC) (F)     (DEG/KT/KT) (MB)    (FT/S)
CHAMBERS ISLAND  0640   38     150/  4/  8 1015.9F
NORTHPORT PIER   0640   37     150/  7/  9 1016.9F
SISTER BAY       0550   36     160/ 10/ 12   N/A
ALGOMA LAKESHORE 0611           CALM  /  2   N/A
KEWAUNEE LAKESHO 0630   36     120/  3/  5 1016.2F
SHEBOYGAN LAKESH 0600   39     160/  5/  6 1017.2F
PORT WASHINGTON  0630   39      90/  3/  4 1017.3F
MILWAUKEE LAKESH 0630   40     140/ 10/ 12   N/A
KENOSHA   LAKESH 0600   39     170/  8/ 11 1016.6
$$

TC  - TEMPERATURE IN CELSIUS
VSB - VISIBILITY IN STATUTE MILES
WCI - WIND CHILL INDEX
HX  - HEAT INDEX





USA.gov is the U.S. government's official web portal to all federal, state and local government web resources and services.